{"data":{"norad_id":60191,"intl_designator":"2024-124J","name":"STARLINK-11175 [DTC]","alt_names":[],"object_type":"PAYLOAD","status":"ACTIVE","operator":null,"country":"US","launch_date":"2024-07-03","launch_site_code":"AFETR","launch_vehicle":null,"mission":null,"orbit_class":"UNKNOWN","rcs_meters":null,"size_class":null,"mass_kg":null,"dimensions":null,"purposes":["comms"],"wikipedia_slug":null,"has_3d_model":false,"image_url":null,"decayed_at":null,"tle_current":{"epoch":"2026-09-20T08:11:46.008672Z","epoch_age_seconds":195208,"freshness":"STALE","line1":"1 60191U 24124J   26263.34150473  .00000325  00000+0  75442-5 0  9992","line2":"2 60191  53.1582 281.8882 0001178  80.3014 279.8137 15.69711567127109","mean_motion":15.69711567,"eccentricity":0.0001178,"inclination_deg":53.1582,"raan_deg":281.8882,"arg_perigee_deg":80.3014,"mean_anomaly_deg":279.8137,"bstar":7.5442e-6,"rev_number":12710,"period_min":91.736598638443,"perigee_km":358.92854644776,"apogee_km":360.51598609089,"semimajor_km":6737.8592662693,"source":"CELESTRAK","updated_at":"2026-09-22T09:00:49.183283Z"}}}